Location: Sweet Grass
(48.9965°N, 111.9649°W)
Time: 16:53:53
(UTC+00:00)

DIWATA 2B (PO-101) - Pass Details

Date: 06 April 2023
Orbit: 581 x 594 km, 98.0° (Epoch: 04 June)

Event Time Altitude Azimuth Distance (km) Brightness Sun altitude
Exits shadow 08:50:53 24° 50° (NE) 1,245 ? -31.9°
Drops below altitude 10° 08:53:39 10° 10° (N) 1,913 ? -31.7°
Sets 08:56:06 0° 357° (N) 2,820 ? -31.5°
